EUTE 28B (EUTE W2M)

导读 | 豆包AI

EUTE 28B(曾用名EUTE W2M、Eutelsat 48B)是欧洲卫星通信公司Eutelsat运营的通信卫星,由印度空间研究组织研制,采用I3K平台,于2008年12月20日由阿丽亚娜5ECA火箭发射升空,定轨于东经28.0度的地球静止轨道,主要为覆盖区域提供广播电视、数据传输等通信服务,是欧洲卫星网络布局的重要组成部分。

Basic Information
目录编号:
33460
目录名称:
EUTE 28B (EUTE W2M)
国际标识:
2008-065B
轨道中心:
EARTH
卫星名称:
EUTE 28B (EUTE W2M)
卫星全名:
--
卫星状态:
在轨 (已飞行6340 天)
发射日期:
2008-12-20 UTC
国别 :
(EUTE)
星等 :
--
Orbit Information
数据来源 国际轨道数据 AOE轨道数据
星历时间 2026-04-30T17:39:48+0800
12小时前
查看轨道信息
2026-05-01T01:00:00+0800
5小时前
查看轨道信息
半长轴 42592.558km 42592.586km
偏心率 0.0003149 0.0003145
轨道倾角 5.209° 5.210°
近地点辐角 307.517° 308.002°
升交点赤经 74.955° 74.953°
平近点角 125.835° 234.042°
近地点 36201.008km 36201.053km
远地点 36227.834km 36227.845km
周期 1458.009分钟 1458.011分钟
每日圈数 0.987648 0.987647
Detailed Information
使用方式:
暂无
2D Orbit Map
3D Orbit Map
Orbit Altitude Analysis Chart
Orbit Inclination Analysis Chart
Orbit Comprehensive Analysis Chart
View Comprehensive Chart